Location: San Vito
(41.8833°N, 12.9833°E)
Time: 09:49:43
(UTC+00:00)

Cosmos 2360 Rocket - Pass Details

Date: 17 November 2019
Orbit: 832 x 847 km, 71.0° (Epoch: 08 December)

Event Time Altitude Azimuth Distance (km) Brightness Sun altitude
Exits shadow 04:49:34 - 338° (NNW) 3,389 5.0 -13.1°
Reaches altitude 10° 04:51:58 10° 341° (NNW) 2,478 4.3 -12.7°
Maximum altitude 04:57:38 66° 64° (ENE) 923 2.6 -11.6°
Drops below altitude 10° 05:03:15 10° 146° (SSE) 2,460 5.4 -10.6°
Sets 05:05:43 0° 149° (SSE) 3,390 6.1 -10.2°
